DW6743 Weather Reports


Display with metric or nautical units.
time (UTC)temp
F
wind
direction
speed
MPH
gust
MPH
rain 1hr
in
rain 24hr
in
rain mn
in
humidity
%
barometer
mb
20260904023304 60 296 24.0 31.0 0.00 1.25 0.01 81 1001.9
20260904023108 60 310 22.0 31.0 0.00 0.32 0.00 81 1001.8
20260904021804 61 289 22.0 29.0 0.00 1.24 0.01 82 1001.9
20260904021603 60 300 21.0 33.0 0.00 0.32 0.00 81 1001.8
20260904021304 60 297 24.0 31.0 0.00 1.24 0.01 82 1002.0
20260904020804 60 291 25.0 30.0 0.00 1.24 0.01 82 1002.0
20260904020304 61 296 25.0 31.0 0.00 1.24 0.01 82 1002.1
20260904020104 60 287 24.0 31.0 0.00 0.32 0.00 82 1002.1
20260904014804 60 293 22.0 28.0 0.00 1.24 0.01 83 1002.1
20260904014634 60 310 22.0 30.0 0.00 0.32 0.00 82 1001.9
20260904014303 61 289 21.0 30.0 0.00 1.24 0.01 83 1002.1
20260904013304 60 289 17.0 30.0 0.00 1.24 0.01 83 1002.2
20260904013104 60 285 19.0 30.0 0.00 0.32 0.00 82 1002.1
20260904011804 60 295 22.0 29.0 0.00 1.24 0.01 83 1002.2
20260904011609 60 300 23.0 29.0 0.00 0.32 0.00 83 1002.1
20260904010813 60 284 21.0 26.0 0.00 1.24 0.01 83 1002.2
20260904010107 60 261 18.0 26.0 0.00 0.32 0.00 83 1002.2
20260904004804 60 292 20.0 26.0 0.00 1.24 0.01 84 1002.7
20260904004604 60 295 19.0 28.0 0.00 0.32 0.00 83 1002.6
20260904004304 61 295 21.0 28.0 0.00 1.24 0.01 84 1002.8
20260904003804 61 290 16.0 24.0 0.00 1.24 0.01 84 1002.8
20260904003304 61 302 21.0 30.0 0.00 1.24 0.01 84 1002.8
20260904003104 60 332 21.0 30.0 0.00 0.32 0.00 84 1002.7
20260904001805 60 298 20.0 26.0 0.00 1.24 0.01 84 1003.0
20260904001608 60 293 19.0 31.0 0.00 0.32 0.00 84 1003.0
20260904001305 60 288 19.0 26.0 0.00 1.24 0.01 84 1002.9
20260904000804 61 302 22.0 31.0 0.00 1.24 0.01 84 1003.0
20260904000109 60 300 26.0 32.0 0.00 0.32 0.00 84 1003.0
20260903234607 60 291 19.0 30.0 0.00 0.32 0.00 85 1002.8
20260903234303 60 289 22.0 26.0 0.00 1.24 0.01 85 1002.8
20260903233307 60 283 22.0 30.0 0.00 1.24 0.01 86 1002.9
20260903233106 60 297 21.0 30.0 0.00 0.32 0.00 85 1002.9
20260903231804 60 301 21.0 29.0 0.01 1.24 0.01 87 1003.1
20260903231629 59 305 20.0 30.0 0.00 0.32 0.00 86 1003.1
20260903231304 60 299 22.0 30.0 0.01 1.24 0.01 87 1003.0
20260903230804 60 291 18.0 30.0 0.01 1.24 0.01 87 1003.1
20260903230121 59 300 24.0 32.0 0.00 0.32 0.00 87 1003.0
20260903224627 59 294 21.0 31.0 0.00 0.32 0.00 87 1002.8
20260903224304 60 292 24.0 31.0 0.02 1.23 0.01 87 1002.9
20260903223805 60 305 23.0 31.0 0.01 1.22 0.01 88 1002.9
20260903223304 60 305 20.0 33.0 0.01 1.22 0.01 88 1003.1
20260903223117 60 305 22.0 33.0 0.00 0.32 0.00 87 1003.1
20260903221804 60 300 21.0 26.0 0.02 1.21 0.00 88 1003.0
20260903221605 60 300 18.0 29.0 0.01 0.31 0.00 87 1002.9
20260903221304 60 299 20.0 25.0 0.02 1.21 0.00 88 1003.0
20260903220828 60 306 18.0 29.0 0.02 1.21 0.00 88 1003.0
20260903220304 60 307 20.0 31.0 0.02 1.21 0.00 88 1003.0
20260903220116 60 310 20.0 31.0 0.01 0.31 0.00 87 1002.9
20260903214804 60 302 21.0 31.0 0.05 1.21 0.31 88 1003.0
20260903214606 60 310 22.0 31.0 0.04 0.31 0.31 88 1002.9
20260903214304 60 302 23.0 29.0 0.05 1.24 0.31 88 1003.0
20260903213804 60 304 23.0 29.0 0.05 1.24 0.31 88 1002.9
20260903213304 60 298 20.0 29.0 0.05 1.24 0.31 88 1002.9
20260903213107 60 278 19.0 27.0 0.04 0.31 0.31 87 1002.9
20260903211804 60 266 17.0 20.0 0.03 1.23 0.30 88 1002.9
20260903211616 60 254 16.0 21.0 0.03 0.29 0.29 87 1002.8
20260903211304 60 268 15.0 20.0 0.03 1.23 0.30 88 1002.9
20260903210304 60 261 10.0 14.0 0.03 1.23 0.30 88 1002.9
20260903210106 59 235 6.0 11.0 0.03 0.29 0.29 87 1002.9
20260903204804 59 141 6.0 7.0 0.00 1.20 0.27 88 1003.0
20260903204607 59 135 4.0 8.0 0.00 0.26 0.26 87 1002.9
20260903203804 59 134 6.0 8.0 0.00 1.20 0.27 88 1003.0
20260903203305 59 133 5.0 7.0 0.00 0.93 0.27 88 1003.1
20260903203109 59 142 5.0 6.0 0.00 0.26 0.26 87 1003.0
20260903201804 59 131 5.0 7.0 0.00 0.96 0.27 88 1003.1
20260903201609 59 129 4.0 8.0 0.00 0.26 0.26 87 1003.1
20260903201303 59 127 5.0 7.0 0.00 0.96 0.27 88 1003.2
20260903200804 59 132 3.0 8.0 0.00 0.96 0.27 88 1003.2
20260903200110 59 133 5.0 8.0 0.00 0.26 0.26 87 1003.1
20260903194804 59 126 6.0 9.0 0.00 0.96 0.27 88 1003.3
20260903194605 58 123 4.0 8.0 0.00 0.26 0.26 87 1003.2
20260903194304 59 121 4.0 8.0 0.00 0.96 0.27 88 1003.3
20260903193804 59 134 7.0 8.0 0.00 0.96 0.27 88 1003.3
20260903193107 59 133 5.0 9.0 0.00 0.26 0.26 87 1003.3
20260903191804 59 129 6.0 10.0 0.00 0.69 0.27 88 1003.5
20260903191609 59 129 5.0 10.0 0.00 0.26 0.26 87 1003.5
20260903191307 59 124 6.0 9.0 0.00 0.69 0.27 88 1003.4
20260903190804 59 132 8.0 10.0 0.00 0.69 0.27 87 1003.5
20260903190304 59 131 6.0 8.0 0.00 0.69 0.27 87 1003.6
20260903190106 59 132 5.0 8.0 0.00 0.26 0.26 87 1003.5
20260903184605 59 113 3.0 7.0 0.00 0.26 0.26 87 1003.6
20260903183304 59 108 5.0 8.0 0.00 0.69 0.27 88 1003.6
20260903183122 59 116 3.0 7.0 0.00 0.26 0.26 87 1003.5
20260903181804 59 108 3.0 6.0 0.00 0.69 0.27 87 1003.8
20260903181639 59 87 2.0 6.0 0.00 0.26 0.26 87 1003.7
20260903181304 60 110 3.0 6.0 0.00 0.69 0.27 87 1003.9
20260903180804 60 110 3.0 6.0 0.00 0.69 0.27 87 1003.8
20260903180304 60 112 3.0 7.0 0.00 0.72 0.27 87 1003.8
20260903180109 59 114 3.0 7.0 0.00 0.26 0.26 87 1003.7
20260903174804 60 105 3.0 6.0 0.00 0.72 0.27 87 1003.7
20260903174605 59 115 2.0 6.0 0.00 0.26 0.26 87 1003.7
20260903173803 60 103 3.0 6.0 0.00 0.46 0.27 87 1003.7
20260903173304 60 109 3.0 7.0 0.00 0.46 0.27 87 1003.8
20260903173111 59 105 2.0 7.0 0.00 0.26 0.26 87 1003.7
20260903171804 60 108 3.0 6.0 0.00 0.46 0.27 87 1003.9
20260903171607 59 107 3.0 7.0 0.00 0.26 0.26 87 1003.8
20260903171304 60 127 3.0 7.0 0.00 0.46 0.27 87 1003.7
20260903170804 60 131 5.0 7.0 0.00 0.46 0.27 87 1003.8
20260903170304 60 123 4.0 9.0 0.00 0.46 0.27 87 1003.7
20260903170109 59 127 5.0 9.0 0.00 0.26 0.26 87 1003.6
20260903164804 60 117 3.0 6.0 0.01 0.46 0.27 87 1003.9
20260903164608 59 117 3.0 7.0 0.00 0.26 0.26 87 1003.9
20260903164304 60 122 5.0 7.0 0.01 0.46 0.27 87 1003.9
20260903163304 60 114 3.0 6.0 0.05 0.46 0.27 87 1004.2
20260903163106 59 87 1.0 6.0 0.06 0.26 0.26 87 1004.0
20260903161804 60 108 1.0 3.0 0.17 0.46 0.27 87 1004.3
20260903161618 60 0 2.0 7.0 0.17 0.26 0.26 86 1004.3
20260903161304 60 82 3.0 7.0 0.17 0.46 0.27 87 1004.3
20260903160804 60 85 2.0 5.0 0.18 0.46 0.27 87 1004.2
20260903160304 60 110 2.0 9.0 0.19 0.46 0.27 87 1004.4
20260903160109 60 93 1.0 9.0 0.18 0.26 0.26 86 1004.4
20260903154804 60 107 3.0 7.0 0.20 0.45 0.26 87 1004.5
20260903154607 60 112 2.0 8.0 0.19 0.25 0.25 86 1004.5
20260903154304 60 114 2.0 8.0 0.20 0.48 0.26 87 1004.6
20260903153304 60 153 5.0 8.0 0.18 0.47 0.22 86 1004.7
20260903153107 60 158 4.0 7.0 0.17 0.20 0.20 86 1004.8
20260903151804 60 167 5.0 8.0 0.08 0.35 0.09 86 1004.9
20260903151617 60 137 2.0 7.0 0.07 0.09 0.09 86 1004.9
20260903150804 60 133 4.0 7.0 0.07 0.34 0.09 86 1004.9
20260903150304 60 137 6.0 12.0 0.07 0.25 0.08 86 1004.9
20260903150107 60 139 7.0 11.0 0.07 0.07 0.07 86 1004.7
20260903144804 61 155 7.0 9.0 0.06 0.24 0.06 86 1005.1
20260903144607 60 142 5.0 11.0 0.06 0.06 0.06 85 1005.0
20260903144304 61 139 5.0 10.0 0.06 0.23 0.06 86 1005.0
20260903143804 61 133 6.0 10.0 0.05 0.22 0.05 85 1005.0
20260903143108 60 139 6.0 9.0 0.03 0.03 0.03 85 1005.0
20260903141605 61 143 4.0 10.0 0.01 0.01 0.01 84 1005.3
20260903140804 61 172 7.0 9.0 0.02 0.20 0.02 84 1005.7
20260903140304 62 173 7.0 9.0 0.01 0.20 0.01 84 1005.7
20260903140109 61 175 5.0 9.0 0.00 0.00 0.00 84 1005.7
20260903134610 61 186 6.0 14.0 0.00 0.00 0.00 83 1006.0
20260903134304 62 181 9.0 14.0 0.00 0.19 0.00 83 1006.1
20260903133304 62 186 10.0 14.0 0.00 0.19 0.00 83 1006.0
20260903133109 61 180 10.0 15.0 0.00 0.00 0.00 82 1006.0
20260903131804 62 192 10.0 12.0 0.00 0.19 0.00 82 1006.3
20260903131610 61 185 8.0 14.0 0.00 0.00 0.00 82 1006.1
20260903131304 62 190 9.0 12.0 0.00 0.19 0.00 82 1006.3
20260903130804 62 174 9.0 14.0 0.00 0.19 0.00 82 1006.3
20260903130304 62 168 10.0 15.0 0.00 0.19 0.00 81 1006.2
20260903130106 62 176 10.0 15.0 0.00 0.00 0.00 81 1006.1
20260903124611 62 193 6.0 14.0 0.00 0.00 0.00 80 1006.2
20260903124304 62 188 9.0 12.0 0.00 0.20 0.00 80 1006.3
20260903123304 63 182 6.0 13.0 0.00 0.20 0.00 79 1006.3
20260903123107 63 199 9.0 13.0 0.00 0.00 0.00 79 1006.4
20260903121804 63 201 5.0 9.0 0.00 0.20 0.00 78 1006.6
20260903121607 63 216 6.0 10.0 0.00 0.00 0.00 78 1006.6
20260903121303 63 202 8.0 10.0 0.00 0.20 0.00 78 1006.7
20260903120804 63 210 7.0 10.0 0.00 0.20 0.00 79 1006.8
20260903120304 63 179 7.0 12.0 0.00 0.20 0.00 79 1006.9
20260903120105 62 162 8.0 12.0 0.00 0.00 0.00 79 1006.8
20260903114604 61 181 3.0 12.0 0.00 0.03 0.00 79 1007.1
20260903113804 62 188 7.0 12.0 0.00 0.20 0.00 80 1007.3
20260903113314 62 203 9.0 12.0 0.00 0.21 0.00 80 1007.3
20260903113107 61 221 6.0 11.0 0.00 0.03 0.00 79 1007.2
20260903111604 61 192 6.0 11.0 0.00 0.03 0.00 79 1007.3
20260903111304 62 218 7.0 9.0 0.00 0.22 0.00 80 1007.5
20260903110803 61 200 7.0 12.0 0.00 0.22 0.00 80 1007.5
20260903110304 62 206 8.0 12.0 0.00 0.22 0.00 80 1007.6
20260903110109 61 217 6.0 11.0 0.00 0.03 0.00 79 1007.5
20260903104806 61 192 6.0 10.0 0.00 0.22 0.00 79 1007.6
20260903104603 61 198 5.0 11.0 0.00 0.03 0.00 79 1007.6
20260903104304 61 199 5.0 12.0 0.00 0.22 0.00 79 1007.7
20260903103804 61 191 8.0 12.0 0.00 0.22 0.00 80 1007.7
20260903103304 61 198 9.0 12.0 0.00 0.22 0.00 80 1007.8
20260903103107 60 183 8.0 11.0 0.00 0.03 0.00 79 1007.7
20260903101610 60 208 8.0 11.0 0.00 0.03 0.00 79 1007.7
20260903101304 60 198 7.0 12.0 0.00 0.22 0.00 80 1008.0
20260903100804 60 188 7.0 12.0 0.00 0.22 0.00 80 1008.1
20260903100106 60 212 8.0 12.0 0.00 0.03 0.00 80 1008.2
20260903094804 60 217 7.0 10.0 0.00 0.22 0.00 81 1008.5
20260903094611 60 223 4.0 9.0 0.00 0.03 0.00 81 1008.5
20260903093805 60 235 6.0 10.0 0.00 0.22 0.00 81 1008.7
20260903093109 59 234 7.0 10.0 0.00 0.03 0.00 80 1008.7
20260903091804 60 227 5.0 8.0 0.00 0.22 0.00 81 1008.8
20260903091608 59 249 5.0 10.0 0.00 0.03 0.00 80 1008.9
20260903091304 59 234 6.0 10.0 0.00 0.22 0.00 80 1008.9
20260903090805 59 261 7.0 10.0 0.00 0.22 0.00 80 1009.0
20260903090304 59 243 6.0 10.0 0.00 0.22 0.00 80 1009.0
20260903090108 59 243 6.0 10.0 0.00 0.03 0.00 80 1009.0
20260903084803 59 249 7.0 10.0 0.00 0.22 0.00 79 1009.2
20260903084604 59 241 6.0 12.0 0.00 0.03 0.00 79 1009.0
20260903084304 59 221 7.0 12.0 0.00 0.22 0.00 79 1009.2
20260903083804 59 235 7.0 12.0 0.00 0.22 0.00 78 1009.3
20260903083304 59 255 10.0 14.0 0.00 0.22 0.00 78 1009.4
20260903083109 58 248 9.0 13.0 0.00 0.03 0.00 78 1009.2
20260903081803 59 252 9.0 12.0 0.00 0.22 0.00 79 1009.5
20260903081604 58 264 4.0 10.0 0.00 0.03 0.00 79 1009.4
20260903081303 59 251 6.0 10.0 0.00 0.22 0.00 80 1009.4
20260903080804 58 258 8.0 10.0 0.00 0.22 0.00 79 1009.4
20260903080304 58 245 7.0 14.0 0.00 0.22 0.00 80 1009.6
20260903080113 58 248 9.0 13.0 0.00 0.03 0.00 79 1009.6
20260903074804 58 266 11.0 14.0 0.00 0.22 0.00 80 1009.7
20260903074607 58 245 10.0 16.0 0.00 0.03 0.00 79 1009.7
20260903074304 58 268 10.0 14.0 0.00 0.22 0.00 79 1009.7
20260903073804 58 263 12.0 16.0 0.00 0.22 0.00 79 1009.9
20260903073304 58 266 12.0 16.0 0.00 0.22 0.00 79 1009.9
20260903073116 58 259 11.0 16.0 0.00 0.03 0.00 79 1009.8
20260903071804 58 272 10.0 14.0 0.00 0.22 0.00 80 1009.9
20260903071608 57 282 9.0 14.0 0.00 0.03 0.00 79 1009.8
20260903071304 58 268 10.0 12.0 0.00 0.22 0.00 79 1009.8
20260903070804 58 265 12.0 14.0 0.00 0.22 0.00 79 1009.8
20260903070304 58 267 10.0 14.0 0.00 0.22 0.00 78 1009.8
20260903070110 58 268 10.0 14.0 0.00 0.03 0.00 77 1009.8
20260903064603 59 256 11.0 15.0 0.00 0.03 0.00 76 1009.9
20260903063804 59 262 10.0 15.0 0.00 0.22 0.00 76 1009.8
20260903063304 59 267 11.0 14.0 0.00 0.22 0.00 76 1009.9
20260903063127 59 274 11.0 14.0 0.00 0.03 0.00 76 1009.8
20260903061804 59 274 12.0 16.0 0.00 0.22 0.00 76 1009.9
20260903061605 59 268 10.0 16.0 0.00 0.03 0.00 76 1009.8
20260903061304 59 281 8.0 13.0 0.00 0.22 0.00 76 1010.0
20260903060804 59 265 12.0 15.0 0.00 0.22 0.00 76 1010.0
20260903060303 59 262 12.0 17.0 0.00 0.22 0.00 76 1009.9
20260903060108 58 273 12.0 17.0 0.00 0.03 0.00 76 1009.8
20260903054604 58 264 12.0 16.0 0.00 0.03 0.00 76 1009.9
20260903054304 59 267 13.0 16.0 0.00 0.22 0.00 76 1010.0
20260903053804 59 272 10.0 14.0 0.00 0.22 0.00 75 1010.1
20260903053105 58 268 12.0 17.0 0.00 0.03 0.00 73 1010.1
20260903051804 59 271 12.0 16.0 0.00 0.22 0.00 74 1010.2
20260903051610 58 288 13.0 16.0 0.00 0.03 0.00 73 1010.2
20260903051304 58 283 14.0 16.0 0.00 0.22 0.00 73 1010.3
20260903050803 58 295 10.0 15.0 0.00 0.22 0.00 74 1010.3
20260903050304 58 290 13.0 20.0 0.00 0.22 0.00 74 1010.4
20260903050115 58 283 12.0 19.0 0.00 0.03 0.00 74 1010.2
20260903044606 58 300 14.0 19.0 0.00 0.03 0.00 73 1010.3
20260903044304 58 275 13.0 20.0 0.00 0.22 0.00 74 1010.3
20260903043803 58 268 12.0 16.0 0.00 0.22 0.00 73 1010.3
20260903043304 58 291 13.0 18.0 0.00 0.22 0.00 73 1010.5
20260903043111 57 287 14.0 18.0 0.00 0.03 0.00 73 1010.3
20260903041804 58 280 11.0 16.0 0.00 0.22 0.00 73 1010.6
20260903041611 57 292 11.0 21.0 0.00 0.03 0.00 72 1010.6
20260903041304 58 296 14.0 20.0 0.00 0.22 0.00 72 1010.5
20260903040804 57 290 12.0 21.0 0.00 0.22 0.00 72 1010.6
20260903040304 58 290 15.0 20.0 0.00 0.22 0.00 73 1010.7
20260903040117 57 291 14.0 18.0 0.00 0.03 0.00 72 1010.7
20260903034602 57 292 13.0 20.0 0.00 0.03 0.00 71 1010.7
20260903034304 57 280 16.0 20.0 0.00 0.22 0.00 72 1010.7
20260903033804 57 297 14.0 18.0 0.00 0.22 0.00 71 1010.7
20260903033107 57 310 13.0 23.0 0.00 0.03 0.00 72 1010.9
20260903031804 58 287 16.0 20.0 0.00 0.22 0.00 71 1010.9
20260903031605 57 287 15.0 21.0 0.00 0.03 0.00 71 1010.9
20260903031304 58 288 17.0 20.0 0.00 0.22 0.00 71 1010.8
20260903030804 58 294 16.0 21.0 0.00 0.22 0.00 71 1011.0
20260903030111 57 291 12.0 22.0 0.00 0.03 0.00 70 1011.0
20260903024804 58 285 18.0 21.0 0.00 0.22 0.00 71 1011.0
20260903024608 57 281 15.0 21.0 0.00 0.03 0.00 71 1010.9